Olivia, MN

8:14 AM CST on February 25, 2017 (GMT -0600)
Olivia Regional

Weather History for KOVL - February, 2013

Change the Weather History Date:

Friday, February 15, 2013

  Actual Average (KRWF) Record (KRWF)
Temperature  
Mean Temperature 6 °F -  
Max Temperature 15 °F 24 °F 52 °F (1981)
Min Temperature -2 °F 8 °F -21 °F (1936)
Degree Days  
Heating Degree Days 58    
Moisture  
Dew Point 2 °F    
Average Humidity 81    
Maximum Humidity 85    
Minimum Humidity 73    
Precipitation  
Precipitation 0.00 in - - ()
Sea Level Pressure  
Sea Level Pressure 30.29 in    
Wind  
Wind Speed 7 mph (WNW)    
Max Wind Speed 10 mph    
Max Gust Speed -    
Visibility 9 miles    
Events Snow    
Averages and records for this station are not official NWS values.
T = Trace of Precipitation, MM = Missing Value Source: NWS Daily Summary

Daily Weather History Graph

Daily Weather History Graph

Search for Another Location

Airport or City:

Trip Planner

Search our weather history database for the weather conditions in past years. The results will help you decide how hot, cold, wet, or windy it might be!

Date:

Astronomy

Feb. 15, 2013 Rise Set
Actual Time 7:20 AM CST 5:48 PM CST
Civil Twilight 6:50 AM CST 6:18 PM CST
Nautical Twilight 6:15 AM CST 6:53 PM CST
Astronomical Twilight 5:42 AM CST 7:27 PM CST
Moon 9:40 AM CST (2/15) No Moon Set
Length of Visible Light 11h 28m
Length of Day
10h 28m
Waxing Crescent, 30% of the Moon is Illuminated
Feb 15
Waxing Crescent
Feb 17
First Quarter
Feb 25
Full
Mar 4
Last Quarter
Mar 11
New

Hourly Weather History & Observations

Time (CST) Temp. Windchill Dew Point Humidity Pressure Visibility Wind Dir Wind Speed Gust Speed Precip Events Conditions
12:10 AM 3.2 °F -11.3 °F -0.4 °F 85% 30.23 in 10.0 mi WNW 9.2 mph - N/A   Clear
12:31 AM 3.2 °F -11.3 °F -0.4 °F 85% 30.23 in 10.0 mi WNW 9.2 mph - N/A   Clear
12:50 AM 3.2 °F -11.3 °F -0.4 °F 85% 30.24 in 10.0 mi West 9.2 mph - N/A   Scattered Clouds
1:11 AM 5.0 °F -10.0 °F -0.4 °F 78% 30.24 in 10.0 mi WNW 10.4 mph - N/A   Overcast
1:30 AM 5.0 °F -10.0 °F 1.4 °F 85% 30.23 in 10.0 mi WNW 10.4 mph - N/A   Overcast
1:50 AM 5.0 °F -10.0 °F 1.4 °F 85% 30.23 in 10.0 mi WNW 10.4 mph - N/A   Overcast
2:11 AM 5.0 °F -8.1 °F -0.4 °F 78% 30.24 in 10.0 mi WNW 8.1 mph - N/A   Mostly Cloudy
2:31 AM 3.2 °F -10.3 °F -0.4 °F 85% 30.24 in 10.0 mi WNW 8.1 mph - N/A   Scattered Clouds
2:51 AM 3.2 °F -11.3 °F -0.4 °F 85% 30.25 in 10.0 mi WNW 9.2 mph - N/A   Clear
3:11 AM 3.2 °F -11.3 °F -0.4 °F 85% 30.25 in 10.0 mi WNW 9.2 mph - N/A   Clear
3:31 AM 3.2 °F -11.3 °F -0.4 °F 85% 30.25 in 10.0 mi WNW 9.2 mph - N/A   Clear
3:51 AM 1.4 °F -12.5 °F -2.2 °F 85% 30.25 in 10.0 mi West 8.1 mph - N/A   Scattered Clouds
4:11 AM 3.2 °F - -0.4 °F 85% 30.25 in 10.0 mi Calm Calm - N/A   Mostly Cloudy
4:31 AM 3.2 °F -10.3 °F -0.4 °F 85% 30.25 in 10.0 mi WNW 8.1 mph - N/A   Mostly Cloudy
4:51 AM 3.2 °F -9.1 °F -0.4 °F 85% 30.26 in 10.0 mi NW 6.9 mph - N/A   Clear
5:11 AM 1.4 °F - -4.0 °F 78% 30.26 in 10.0 mi Calm Calm - N/A   Clear
5:30 AM 1.4 °F - -4.0 °F 78% 30.26 in 10.0 mi Calm Calm - N/A   Clear
5:51 AM 1.4 °F -9.9 °F -4.0 °F 78% 30.27 in 10.0 mi WNW 5.8 mph - N/A   Clear
6:11 AM 1.4 °F - -4.0 °F 78% 30.27 in 10.0 mi Calm Calm - N/A   Clear
6:30 AM -0.4 °F -12.0 °F -4.0 °F 85% 30.28 in 10.0 mi NW 5.8 mph - N/A   Clear
6:51 AM -0.4 °F - -4.0 °F 85% 30.28 in 10.0 mi Calm Calm - N/A   Clear
7:10 AM -0.4 °F - -5.8 °F 78% 30.28 in 10.0 mi Calm Calm - N/A   Clear
7:31 AM -2.2 °F - -5.8 °F 85% 30.29 in 10.0 mi Calm Calm - N/A   Clear
7:51 AM -2.2 °F - -5.8 °F 85% 30.30 in 10.0 mi Calm Calm - N/A   Clear
8:10 AM 1.4 °F -8.3 °F -4.0 °F 78% 30.30 in 10.0 mi NW 4.6 mph - N/A   Clear
8:31 AM 1.4 °F -9.9 °F -4.0 °F 78% 30.31 in 10.0 mi NW 5.8 mph - N/A   Clear
8:51 AM 1.4 °F -11.3 °F -4.0 °F 78% 30.31 in 10.0 mi NW 6.9 mph - N/A   Clear
9:10 AM 1.4 °F -11.3 °F -4.0 °F 78% 30.32 in 5.0 mi NW 6.9 mph - N/A   Clear
9:30 AM 3.2 °F -10.3 °F -0.4 °F 85% 30.32 in 10.0 mi NW 8.1 mph - N/A   Clear
9:51 AM 3.2 °F -9.1 °F -0.4 °F 85% 30.32 in 10.0 mi NW 6.9 mph - N/A   Clear
10:10 AM 5.0 °F -5.6 °F -0.4 °F 78% 30.32 in 10.0 mi NW 5.8 mph - N/A   Clear
10:31 AM 5.0 °F -5.6 °F 1.4 °F 85% 30.32 in 10.0 mi NW 5.8 mph - N/A   Clear
11:10 AM 8.6 °F 0.1 °F 3.2 °F 79% 30.33 in 10.0 mi WNW 4.6 mph - N/A   Clear
11:51 AM 10.4 °F -0.4 °F 5.0 °F 79% 30.33 in 10.0 mi WNW 6.9 mph - N/A   Scattered Clouds
12:11 PM 10.4 °F -0.4 °F 5.0 °F 79% 30.33 in 10.0 mi WNW 6.9 mph - N/A   Scattered Clouds
12:31 PM 10.4 °F -0.4 °F 5.0 °F 79% 30.32 in 10.0 mi WNW 6.9 mph - N/A   Clear
12:50 PM 10.4 °F -1.5 °F 5.0 °F 79% 30.32 in 10.0 mi WNW 8.1 mph - N/A   Clear
1:11 PM 12.2 °F 0.7 °F 5.0 °F 73% 30.32 in 10.0 mi WNW 8.1 mph - N/A   Clear
1:30 PM 12.2 °F -0.2 °F 6.8 °F 79% 30.32 in 10.0 mi WNW 9.2 mph - N/A   Clear
1:50 PM 12.2 °F -0.2 °F 6.8 °F 79% 30.31 in 10.0 mi NW 9.2 mph - N/A   Clear
2:11 PM 12.2 °F -0.2 °F 6.8 °F 79% 30.31 in 10.0 mi WNW 9.2 mph - N/A   Clear
2:30 PM 12.2 °F -0.2 °F 6.8 °F 79% 30.31 in 10.0 mi WNW 9.2 mph - N/A   Clear
2:50 PM 15.8 °F 4.2 °F 8.6 °F 73% 30.31 in 10.0 mi WNW 9.2 mph - N/A   Clear
3:11 PM 15.8 °F 3.4 °F 8.6 °F 73% 30.31 in 10.0 mi WNW 10.4 mph - N/A   Clear
3:31 PM 15.8 °F 4.2 °F 8.6 °F 73% 30.32 in 10.0 mi WNW 9.2 mph - N/A   Clear
3:50 PM 15.8 °F 6.1 °F 8.6 °F 73% 30.32 in 10.0 mi WNW 6.9 mph - N/A   Clear
4:10 PM 14.0 °F 3.9 °F 8.6 °F 79% 30.32 in 10.0 mi NW 6.9 mph - N/A   Clear
4:31 PM 12.2 °F 1.7 °F 6.8 °F 79% 30.32 in 10.0 mi WNW 6.9 mph - N/A   Clear
4:51 PM 12.2 °F 1.7 °F 6.8 °F 79% 30.31 in 10.0 mi WNW 6.9 mph - N/A   Clear
5:10 PM 12.2 °F 1.7 °F 6.8 °F 79% 30.32 in 10.0 mi WNW 6.9 mph - N/A   Clear
5:30 PM 12.2 °F -0.2 °F 5.0 °F 73% 30.32 in 10.0 mi WNW 9.2 mph - N/A   Clear
5:50 PM 10.4 °F -2.4 °F 5.0 °F 79% 30.31 in 10.0 mi WNW 9.2 mph - N/A   Clear
6:10 PM 10.4 °F 0.8 °F 5.0 °F 79% 30.31 in 10.0 mi WNW 5.8 mph - N/A   Clear
6:30 PM 10.4 °F -1.5 °F 5.0 °F 79% 30.31 in 10.0 mi WNW 8.1 mph - N/A   Clear
6:51 PM 8.6 °F -1.3 °F 3.2 °F 79% 30.31 in 10.0 mi WNW 5.8 mph - N/A   Clear
7:10 PM 8.6 °F -2.6 °F 3.2 °F 79% 30.31 in 10.0 mi WNW 6.9 mph - N/A   Clear
7:31 PM 8.6 °F -2.6 °F 3.2 °F 79% 30.30 in 10.0 mi WNW 6.9 mph - N/A   Clear
7:50 PM 3.2 °F -6.2 °F -0.4 °F 85% 30.30 in 10.0 mi WNW 4.6 mph - N/A   Clear
8:10 PM 3.2 °F -4.2 °F -0.4 °F 85% 30.30 in 10.0 mi WNW 3.5 mph - N/A   Clear
8:31 PM 3.2 °F -6.2 °F -0.4 °F 85% 30.30 in 10.0 mi WNW 4.6 mph - N/A   Clear
8:50 PM 1.4 °F - -4.0 °F 78% 30.30 in 10.0 mi Calm Calm - N/A   Clear
9:10 PM 1.4 °F -11.3 °F -4.0 °F 78% 30.30 in 5.0 mi West 6.9 mph - N/A Snow Light Snow
9:31 PM 3.2 °F -6.2 °F -0.4 °F 85% 30.29 in 2.5 mi West 4.6 mph - N/A Snow Light Snow
9:50 PM 8.6 °F 0.1 °F 3.2 °F 79% 30.29 in 4.0 mi West 4.6 mph - N/A Snow Light Snow
10:11 PM 8.6 °F 2.0 °F 5.0 °F 85% 30.28 in 3.0 mi West 3.5 mph - N/A Snow Light Snow
10:31 PM 10.4 °F 0.8 °F 6.8 °F 85% 30.28 in 4.0 mi West 5.8 mph - N/A Snow Light Snow
10:50 PM 12.2 °F 4.3 °F 8.6 °F 85% 30.27 in 4.0 mi West 4.6 mph - N/A Snow Light Snow
11:11 PM 12.2 °F 6.1 °F 8.6 °F 85% 30.26 in 3.0 mi West 3.5 mph - N/A Snow Light Snow
11:31 PM 12.2 °F - 8.6 °F 85% 30.26 in 4.0 mi Calm Calm - N/A Snow Light Snow
11:50 PM 12.2 °F - 8.6 °F 85% 30.26 in 3.0 mi Calm Calm - N/A Snow Light Snow